Regional Weather Roundup
Issued by NWS

Home | Current Version | Previous Version | Graphics & Text | Print | Product List | Glossary On
Versions: 1 2 3 4 5 6 7 8 9 10 11 12 13 14 15 16 17 18 19 20 21 22 23 24 25 26 27 28
000
ASUS45 KTFX 281810
RWRMT
MONTANA REGIONAL WEATHER ROUNDUP
NATIONAL WEATHER SERVICE GREAT FALLS MT
1200 PM MDT SUN MAY 28 2017

NOTE: "FAIR" INDICATES FEW OR NO CLOUDS BELOW 12000 FEET WITH NO
SIGNIFICANT WEATHER AND/OR OBSTRUCTIONS TO VISIBILITY.

MTZ001>007-043-281900-
WEST OF THE DIVIDE

CITY           SKY/WX    TMP DP  RH WIND       PRES   REMARKS
KALISPELL      SUNNY     72  45  37 CALM      30.21F
MISSOULA       SUNNY     67  43  41 CALM      30.24F
BUTTE          SUNNY     67  35  30 NW8       30.30F
MULLAN PASS    PTSUNNY   62  34  35 VRB3      30.33S
ANACONDA         N/A     66  37  34 N7        30.27F
DEER LODGE       N/A     66  41  39 N3        30.30F
EUREKA           N/A     70  45  40 W3        30.21F
HAMILTON         N/A     70  39  32 N5        30.23F
PLAINS           N/A     72  50  45 CALM      30.19F
RONAN            N/A     71  49  45 SW3       30.25S
$$

MTZ008-052>055-281900-
SOUTHWEST MONTANA

CITY           SKY/WX    TMP DP  RH WIND       PRES   REMARKS
BOZEMAN        SUNNY     68  43  40 CALM      30.27F
DILLON         SUNNY     66  36  32 VRB3      30.28F
ENNIS          SUNNY     66  36  32 VRB6      30.34S
THREE FORKS      N/A     69  39  33 CALM      30.23F
TWIN BRIDGES     N/A     66  38  35 CALM      30.24F
$$

MTZ009-010-012-014-046-048-049-054-281900-
EAST SLOPES AND CENTRAL MONTANA

CITY           SKY/WX    TMP DP  RH WIND       PRES   REMARKS
CUT BANK       SUNNY     69  42  37 NE17      30.26R
GREAT FALLS    PTSUNNY   69  42  37 N7        30.25R
MALMSTROM AFB  CLOUDY    65  45  47 N3        30.26R
HELENA         SUNNY     71  41  33 VRB6      30.23F
CHOTEAU          N/A     70  41  35 CALM      30.27S
CONRAD           N/A     71  51  49 N12       30.25S
$$

MTZ011-013-016-021-045-047-050-051-281900-
NORTH CENTRAL MONTANA

CITY           SKY/WX    TMP DP  RH WIND       PRES   REMARKS
HAVRE          SUNNY     73  34  23 N7        30.19R
LEWISTOWN      MOSUNNY   67  42  40 NW20G25   30.23S
N BAR RANCH      N/A     66  41  39 NW18G28   30.25S
CHINOOK          N/A     72  36  26 NW15G23   30.17S
$$

MTZ017>020-022>027-061-062-281900-
NORTHEAST MONTANA

CITY           SKY/WX    TMP DP  RH WIND       PRES   REMARKS
GLASGOW        SUNNY     72  32  23 NW26G43   30.08R
JORDAN           N/A     75  38  26 NW18G29   30.09S
SIDNEY         SUNNY     73  34  23 NW28G39   29.98S
WOLF POINT     MOSUNNY   75  34  22 N24G35    30.04R
MALTA          SUNNY     72  34  25 N24G33    30.12R
PLENTYWOOD       N/A     64  36  34 N30G39    29.99S
POPLAR           N/A     70  36  28 NW17G29   30.03R
SCOBEY           N/A     66  34  30 NW24      30.03R
$$

MTZ028>42-056>058-281900-
SOUTHCENTRAL AND SOUTHEAST MONTANA

CITY           SKY/WX    TMP DP  RH WIND       PRES   REMARKS
BAKER          PTSUNNY   69  35  28 W25G38    30.03F
BILLINGS       MOSUNNY   71  44  37 SW9       30.19F
LIVINGSTON     SUNNY     70  41  34 W6        30.24F
MILES CITY     PTSUNNY   74  34  23 NW22G29   30.05F
BIG TIMBER     MOSUNNY   64  37  36 W12       30.25F
EKALAKA          N/A     68  40  35 W21       30.05F
FORSYTH          N/A     73  39  29 NW20G28   30.08F
LAUREL           N/A     70  40  33 SW2       30.17F
ROUNDUP          N/A     73  37  26 W14       30.08S
$$

REGIONAL REPORTS...DAKOTAS

CITY           SKY/WX    TMP DP  RH WIND       PRES   REMARKS
WILLISTON      PTSUNNY   71  36  27 N23G36    29.98R
MINOT          PTSUNNY   70  40  33 NW31G46   29.85F
DICKINSON      MOSUNNY   71  34  25 NW21G33   29.93F
BEACH            N/A     72  36  26 NW28G43   30.02F
CROSBY           N/A     66  36  32 NW37G46   29.95S
TIOGA            N/A     66  37  34 N28G37    29.95S
WATFORD CITY     N/A     70  37  30 NW20G32   29.94F
BISMARCK       MOSUNNY   73  41  31 NW18G26   29.90F
GRAND FORKS    PTSUNNY   65  48  54 NW18G26   29.73F
FARGO          MOSUNNY   67  47  48 NW23G33   29.77R
BUFFALO SD       N/A     73  38  27 W24G33    29.98F
RAPID CITY     MOSUNNY   72  35  25 N20G26    30.09F
$$

REGIONAL REPORTS...WYOMING/IDAHO/WASHINGTON

CITY           SKY/WX    TMP DP  RH WIND       PRES   REMARKS
GILLETTE       MOSUNNY   68  45  43 NW23G31   30.17S
SHERIDAN       CLOUDY    67  44  43 N21G30    30.20S
BUFFALO WY     PTSUNNY   65  40  39 VRB5      30.24F
CODY           CLOUDY    65  35  33 N9        30.28R
YELLOWSTONE LA   N/A     49  36  61 SE5       30.42S
IDAHO FALLS    MOSUNNY   66  45  46 W7        30.30S
SALMON         SUNNY     64  39  39 CALM      30.24F
BOISE          SUNNY     76  42  29 E5        30.20F
SPOKANE        MOSUNNY   76  45  33 VRB5      30.18S
$$

REGIONAL REPORTS...ALBERTA

CITY           SKY/WX    TMP DP  RH WIND       PRES   REMARKS
EDMONTON       SUNNY     61  36  39 N10       30.29F
CALGARY        MOSUNNY   64  36  34 SW3       30.27F
LETHBRIDGE     MOSUNNY   66  41  39 VRB7      30.26S
MEDICINE HAT   MOSUNNY   70  39  32 N17G24    30.21S
WATERTON GATE    N/A     66  43  42 NE5         N/A
CARDSTON         N/A     66  43  42 NE5         N/A
MILK RIVER       N/A     68  45  42 NE8         N/A
$$

REGIONAL REPORTS...SASKATCHEWAN

CITY           SKY/WX    TMP DP  RH WIND       PRES   REMARKS
SWIFT CURRENT  MOSUNNY   63  36  36 NW25G38   30.11S
REGINA         PTSUNNY   63  39  42 NW25G39   30.01S
SASKATOON      MOSUNNY   63  37  39 NW24G32   30.09S
CYPRESS HILLS    N/A     59  34  38 N13G24      N/A
ROCKGLEN         N/A     59  36  41 N21G29      N/A
$$




USA.gov is the U.S. government's official web portal to all federal, state and local government web resources and services.